| time (UTC) | temp C | wind direction | speed KPH | gust KPH | rain 1hr cm | rain 24hr cm | rain mn cm | humidity % | barometer mb |
| 20260504150111 | 19 | 219 | 3.2 | 11.3 | 0.00 | 0.00 | 0.00 | 47 | 1017.4 |
| 20260504100104 | 4 | 0 | 0.0 | 0.0 | 0.00 | 0.00 | 0.00 | 90 | 1016.6 |
| 20260504081604 | 6 | 0 | 0.0 | 0.0 | 0.00 | 0.00 | 0.00 | 84 | 1016.4 |
| 20260504080116 | 6 | 0 | 0.0 | 0.0 | 0.00 | 0.00 | 0.00 | 83 | 1016.2 |
| 20260504044551 | 8 | 0 | 0.0 | 0.0 | 0.00 | 0.00 | 0.00 | 79 | 1016.9 |
| 20260504043108 | 8 | 0 | 0.0 | 0.0 | 0.00 | 0.00 | 0.00 | 76 | 1016.8 |
| 20260504041550 | 8 | 0 | 0.0 | 0.0 | 0.00 | 0.00 | 0.00 | 74 | 1016.5 |
| 20260504040119 | 8 | 0 | 0.0 | 0.0 | 0.00 | 0.00 | 0.00 | 74 | 1016.6 |
| 20260504034556 | 9 | 0 | 0.0 | 0.0 | 0.00 | 0.00 | 0.00 | 73 | 1016.7 |
| 20260504033056 | 9 | 0 | 0.0 | 0.0 | 0.00 | 0.00 | 0.00 | 73 | 1016.7 |
| 20260504031556 | 10 | 0 | 0.0 | 0.0 | 0.00 | 0.00 | 0.00 | 71 | 1016.9 |
| 20260504030052 | 10 | 0 | 0.0 | 0.0 | 0.00 | 0.00 | 0.00 | 70 | 1016.8 |
| 20260504024557 | 10 | 0 | 0.0 | 0.0 | 0.00 | 0.00 | 0.00 | 69 | 1016.8 |
| 20260504023101 | 11 | 0 | 0.0 | 0.0 | 0.00 | 0.00 | 0.00 | 65 | 1016.7 |
| 20260504021557 | 12 | 0 | 0.0 | 0.0 | 0.00 | 0.00 | 0.00 | 60 | 1016.6 |
| 20260504020052 | 12 | 0 | 0.0 | 0.0 | 0.00 | 0.00 | 0.00 | 56 | 1016.4 |
| 20260504014601 | 12 | 0 | 0.0 | 0.0 | 0.00 | 0.00 | 0.00 | 55 | 1016.0 |
| 20260504013120 | 13 | 0 | 0.0 | 0.0 | 0.00 | 0.00 | 0.00 | 53 | 1015.9 |
| 20260504011550 | 13 | 0 | 0.0 | 0.0 | 0.00 | 0.00 | 0.00 | 51 | 1015.9 |
| 20260504010055 | 15 | 0 | 0.0 | 3.2 | 0.00 | 0.00 | 0.00 | 47 | 1015.6 |
| 20260504004555 | 15 | 167 | 1.6 | 3.2 | 0.00 | 0.00 | 0.00 | 46 | 1015.5 |
| 20260504003101 | 16 | 167 | 0.0 | 3.2 | 0.00 | 0.00 | 0.00 | 45 | 1015.5 |
| 20260504001606 | 16 | 148 | 0.0 | 3.2 | 0.00 | 0.00 | 0.00 | 44 | 1015.4 |
| 20260504000122 | 17 | 156 | 0.0 | 4.8 | 0.00 | 0.00 | 0.00 | 42 | 1015.3 |
| 20260503234555 | 18 | 143 | 3.2 | 6.4 | 0.00 | 0.00 | 0.00 | 39 | 1015.1 |
| 20260503233059 | 19 | 142 | 3.2 | 9.7 | 0.00 | 0.00 | 0.00 | 37 | 1015.1 |
| 20260503231600 | 19 | 190 | 1.6 | 8.0 | 0.00 | 0.00 | 0.00 | 35 | 1015.0 |
| 20260503230057 | 19 | 202 | 6.4 | 12.9 | 0.00 | 0.00 | 0.00 | 34 | 1015.0 |
| 20260503224553 | 19 | 142 | 4.8 | 12.9 | 0.00 | 0.00 | 0.00 | 34 | 1015.2 |
| 20260503223047 | 19 | 189 | 6.4 | 16.1 | 0.00 | 0.00 | 0.00 | 33 | 1015.3 |
| 20260503221553 | 19 | 157 | 9.7 | 19.3 | 0.00 | 0.00 | 0.00 | 33 | 1015.3 |
| 20260503220049 | 19 | 215 | 4.8 | 22.5 | 0.00 | 0.00 | 0.00 | 30 | 1015.4 |
| 20260503214549 | 19 | 285 | 6.4 | 16.1 | 0.00 | 0.00 | 0.00 | 30 | 1015.5 |
| 20260503213054 | 18 | 266 | 8.0 | 20.9 | 0.00 | 0.00 | 0.00 | 32 | 1015.8 |
| 20260503211555 | 19 | 280 | 4.8 | 17.7 | 0.00 | 0.00 | 0.00 | 31 | 1016.0 |
| 20260503210054 | 18 | 111 | 6.4 | 14.5 | 0.00 | 0.00 | 0.00 | 32 | 1016.1 |
| 20260503204552 | 18 | 216 | 6.4 | 17.7 | 0.00 | 0.00 | 0.00 | 33 | 1016.4 |
| 20260503203053 | 18 | 273 | 9.7 | 19.3 | 0.00 | 0.00 | 0.00 | 31 | 1016.6 |
| 20260503201553 | 18 | 188 | 8.0 | 17.7 | 0.00 | 0.00 | 0.00 | 33 | 1016.7 |
| 20260503200100 | 17 | 205 | 6.4 | 20.9 | 0.00 | 0.00 | 0.00 | 34 | 1017.0 |
| 20260503194556 | 17 | 263 | 6.4 | 17.7 | 0.00 | 0.00 | 0.00 | 34 | 1017.0 |
| 20260503193059 | 17 | 0 | 4.8 | 24.1 | 0.00 | 0.00 | 0.00 | 34 | 1017.2 |
| 20260503191603 | 17 | 210 | 9.7 | 24.1 | 0.00 | 0.00 | 0.00 | 34 | 1017.5 |
| 20260503190051 | 17 | 262 | 8.0 | 19.3 | 0.00 | 0.00 | 0.00 | 34 | 1017.7 |
| 20260503184552 | 17 | 284 | 8.0 | 17.7 | 0.00 | 0.00 | 0.00 | 34 | 1017.8 |